Back to catalog

SL-16 DEB

AliveLEO
NORAD 39707·DEBRIS·🇷🇺 Russia

Launched Dec 25, 1992 from Baikonur Cosmodrome

Loading…

Next Passes (next 24 hours)

TLE

FreshSource: Space-Track

Epoch: Sep 13, 2026, 23:09 UTC

1 39707U 92093JX  26256.96477599  .00001397  00000-0  53489-3 0  9998
2 39707  71.1103 344.6225 0089422 350.5391   9.4051 14.30114906 17453

Track SL-16 DEB in real time with AllMySat

Download on the App Store